Weather Roundup
Issued by NWS

Home | Current Version | Previous Version | Text Only | Print | Product List | Glossary On
Versions: 1 2 3 4 5 6 7 8 9 10 11 12 13 14 15 16 17 18 19 20 21 22 23 24 25 26 27 28 29 30 31 32 33 34 35 36 37 38 39 40 41 42 43 44 45 46 47 48 49 50
000
NZUS93 KARX 291910
HRRWXR

CURRENT HOURLY OBSERVATIONS ACROSS
MUCH OF THE UPPER MISSISSIPPI VALLEY
NATIONAL WEATHER SERVICE LA CROSSE WI
200 PM CDT SAT AUG 29 2015


...SOUTHEAST MINNESOTA...


CITY           SKY/WX    TMP DP  RH WIND       PRES   REMARKS
ROCHESTER      MOSUNNY   71  63  75 CALM      30.06F
ROCHESTER/MAYO FAIR      72  62  71 E3        30.06S
WINONA         CLOUDY    70  61  73 CALM      30.05S
AUSTIN         MOSUNNY   73  63  68 CALM      30.05S
ALBERT LEA     MOSUNNY   72  63  73 CALM      30.06S
DODGE CENTER   SUNNY     70  61  73 CALM      30.07R
PRESTON        PTSUNNY   69  60  70 SE5       30.07R
OWATONNA       SUNNY     72  61  68 CALM      30.06S
FARIBAULT      MOSUNNY   72  63  73 CALM      30.06S
$$

...ELSEWHERE IN MINNESOTA...


CITY           SKY/WX    TMP DP  RH WIND       PRES   REMARKS
MINNEAPOLIS    PTSUNNY   70  61  73 VRB6      30.05F
INTNL FALLS    CLOUDY    72  66  81 S5        29.97F
DULUTH         CLOUDY    72  59  63 SW8       30.03S
RED WING       SUNNY     72  59  64 SE5       30.05S
REDWOOD FALLS  SUNNY     72  62  71 S6        30.03F
MANKATO        CLOUDY    63  57  82 S5        30.07S
WORTHINGTON    SUNNY     72  63  73 S5        30.06F
FAIRMONT       CLOUDY    64  57  77 E6        30.07S
$$

...SOUTHWEST WISCONSIN...


CITY           SKY/WX    TMP DP  RH WIND       PRES   REMARKS
LA CROSSE      CLOUDY    71  62  73 NW3       30.04F
PRAIRIE DU CHI CLOUDY    70  60  71 N5        30.03S
BOSCOBEL       CLOUDY    71  63  75 E5        30.04R
LONE ROCK      CLOUDY    69  62  78 N5        30.04S
PLATTEVILLE    CLOUDY    71  65  83 N7        30.03R
FORT MC COY    CLOUDY    69  59  69 NE3       30.06F
CAMP DOUGLAS   CLOUDY    68  68 100 NE2       30.05S
VIROQUA        CLOUDY    68  62  79 CALM      30.06S
WIS DELLS      CLOUDY    67  61  81 NE6       30.05S
$$

...ELSEWHERE IN WISCONSIN...


CITY           SKY/WX    TMP DP  RH WIND       PRES   REMARKS
MILWAUKEE      CLOUDY    63  60  90 NE6       30.04S FOG
MADISON        CLOUDY    67  63  87 E5        30.03S
GREEN BAY      CLOUDY    71  62  73 CALM      30.06F
EAU CLAIRE     CLOUDY    66  59  78 CALM      30.07S
BLACK RVR FLS  CLOUDY    69  61  75 NE5       30.05F
MEDFORD        CLOUDY    65  60  81 CALM      30.08S
WAUSAU         CLOUDY    65  59  81 CALM      30.06S
WIS RAPIDS     NOT AVBL
MARSHFIELD     CLOUDY    66  58  75 E6        30.08S
RICE LAKE      MOSUNNY   72  61  68 CALM      30.07S
$$

...NORTHEAST IOWA...


CITY           SKY/WX    TMP DP  RH WIND       PRES   REMARKS
DECORAH        CLOUDY    68  63  83 CALM      30.04F
MASON CITY     PTSUNNY   72  63  73 N3        30.07S
CHARLES CITY   PTSUNNY   72  66  83 NE7       30.05S
OELWEIN        CLOUDY    70  64  83 NE7       30.04F
$$

...ELSEWHERE IN IOWA...


CITY           SKY/WX    TMP DP  RH WIND       PRES   REMARKS
DES MOINES     CLOUDY    71  63  75 N7        30.03S
IOWA CITY      CLOUDY    75  68  78 N3        30.01S
FORT DODGE     CLOUDY    64  61  88 NW3       30.07F
$$

...NORTHERN ILLINOIS...


CITY           SKY/WX    TMP DP  RH WIND       PRES   REMARKS
CHICAGO-OHARE  CLOUDY    69  66  90 SW6       30.01F FOG
CHICAGO-MIDWAY CLOUDY    75  64  68 VRB6      30.00F
MOLINE         CLOUDY    74  67  78 CALM      29.99F
ROCKFORD       CLOUDY    70  64  81 NW3       30.03R
PEORIA         PTSUNNY   82  65  56 S3        30.00F
$$

NOTE: "FAIR" INDICATES FEW OR NO CLOUDS BELOW 12,000 FEET WITH NO
SIGNIFICANT WEATHER AND/OR OBSTRUCTIONS TO VISIBILITY. WIND
SPEEDS ARE IN MILES-PER-HOUR.



USA.gov is the U.S. government's official web portal to all federal, state and local government web resources and services.